Location: Unspecified
(0.0000°N, 0.0000°E)
Time: 22:38:10
(UTC+02:00)

NOAA 12 - Visible Passes

Search period start: 01 October 2016 00:00
Search period end: 11 October 2016 00:00
Orbit: 796 x 815 km, 98.6° (Epoch: 01 October)

Date Brightness Start Highest point End Pass type
(mag) Time Alt. Az. Time Alt. Az. Time Alt. Az.
01 Oct 4.7 20:32:29 10° SE 20:37:07 32° ENE 20:41:44 10° NNE visible
01 Oct 6.8 22:13:36 10° SW 22:16:38 16° WSW 22:19:40 10° WNW visible
02 Oct 5.5 20:09:04 10° ESE 20:12:14 16° ENE 20:15:24 10° NE visible
02 Oct 5.8 21:47:11 10° SSW 21:51:45 31° WSW 21:56:20 10° NW visible
03 Oct 4.5 21:21:41 10° S 21:26:52 63° WSW 21:32:02 10° NNW visible
04 Oct 4.0 20:56:46 10° SSE 21:01:57 65° ENE 21:07:09 10° N visible
05 Oct 4.7 20:32:25 10° SE 20:37:04 32° ENE 20:41:42 10° NNE visible
05 Oct 6.8 22:13:32 10° SW 22:16:34 16° WSW 22:19:37 10° WNW visible
06 Oct 5.5 20:09:00 10° ESE 20:12:11 16° ENE 20:15:22 10° NE visible
06 Oct 5.8 21:47:07 10° SSW 21:51:42 31° WSW 21:56:17 10° NW visible
07 Oct 4.5 21:21:37 10° S 21:26:48 63° WSW 21:31:59 10° NNW visible
08 Oct 4.0 20:56:42 10° SSE 21:01:54 65° ENE 21:07:06 10° N visible
09 Oct 4.7 20:32:21 10° SE 20:37:00 32° ENE 20:41:39 10° NNE visible
09 Oct 6.8 22:13:29 10° SW 22:16:31 16° WSW 22:19:34 10° WNW visible
10 Oct 5.5 20:08:56 10° ESE 20:12:08 16° ENE 20:15:19 10° NE visible
10 Oct 5.8 21:47:03 10° SSW 21:51:38 31° WSW 21:56:14 10° NW visible
